Regional Weather Roundup
Issued by NWS Mobile, AL

Home | Current Version | Previous Version | Text Only | Print | Product List | Glossary On
Versions: 1 2 3 4 5 6 7 8 9 10 11 12 13 14 15 16 17 18 19 20 21 22 23 24 25 26 27 28 29 30 31 32 33 34 35 36 37 38 39 40 41 42 43 44 45 46 47 48 49 50
000
ASUS44 KMOB 271010
RWRMOB
REGIONAL WEATHER ROUNDUP
NATIONAL WEATHER SERVICE MOBILE AL
400 AM CST THU NOV 27 2014

NOTE: "FAIR" INDICATES FEW OR NO CLOUDS BELOW 12,000 FEET WITH NO
      SIGNIFICANT WEATHER AND/OR OBSTRUCTIONS TO VISIBILITY.

  * THESE STATIONS ARE PART OF THE UNIVERSITY OF SOUTH ALABAMA
    MESONET AND ARE NOT UNDER NWS OR FAA QUALITY CONTROL.

ALZ061>064-271100-
COASTAL ALABAMA

CITY           SKY/WX    TMP DP  RH WIND       PRES   REMARKS
MOBILE REG APT CLEAR     43  40  89 CALM      30.30R
BROOKLEY FIELD CLEAR     48  42  80 W5        30.31R
USA CAMPUS*      N/A     45  41  87 W3        30.31R
DOG RIVER*     NOT AVBL


CITY           SKY/WX    TMP DP  RH WIND       PRES   REMARKS
MOUNT VERNON*    N/A     37  36  93 W2        30.29R
SARALAND*      NOT AVBL
BAY MINETTE*   NOT AVBL
LOXLEY*          N/A     43  41  93 W6        30.28R
ROBERTSDALE*     N/A     46  41  81 NW2       30.28R
FAIRHOPE*        N/A     50  45  81 W6        30.28R
ELBERTA*         N/A     48  45  87 CALM      30.26R
FOLEY*           N/A     43  39  87 CALM      30.22R
GRAND BAY*       N/A     46  43  87 CALM      30.28R
DAUPHIN ISLND* NOT AVBL
BON SCOUR NWR* NOT AVBL
GULF SHORES    CLEAR     49  44  81 W3        30.28R

$$

ALZ051>060-271100-
INTERIOR SOUTHWEST AND SOUTH CENTRAL ALABAMA

CITY           SKY/WX    TMP DP  RH WIND       PRES   REMARKS
GREENVILLE     CLEAR     41  34  76 N5        30.24R
EVERGREEN      CLEAR     39  35  86 CALM      30.26R
CASTLEBERRY*   NOT AVBL
ATMORE*          N/A     45  39  81 W5        30.28R
DIXIE*           N/A     41  41 100 CALM      30.22R
ANDALUSIA/OPP  CLEAR     45  38  76 W3        30.25R
ANDALUSIA*       N/A     43  39  87 W3        30.23R
FLORALA APT    CLEAR     44  40  85 CALM      30.26R
FLORALA*         N/A     43  39  87 CALM      30.22R

$$

FLZ001>006-271100-
WESTERN FLORIDA PANHANDLE

CITY           SKY/WX    TMP DP  RH WIND       PRES   REMARKS
PENSACOLA      CLEAR     50  42  74 NW7       30.26R
NAS PENSACOLA  CLEAR     51  44  77 W5        30.27R
MILTON         CLEAR     44  39  82 NW7       30.27R
WHTNG S FIELD  CLEAR     48  41  76 NW6       30.27R


CITY           SKY/WX    TMP DP  RH WIND       PRES   REMARKS
WALNUT HILL*   NOT AVBL
JAY*             N/A     46  39  76 W2        30.27R
DUKE FIELD     CLEAR     47  42  83 W5        30.25R
CRESTVIEW      CLEAR     39  39 100 CALM      30.27R
VALPARAISO     CLEAR     45  41  86 NW8       30.25R
DESTIN         CLEAR     54  44  69 NW7       30.25R

$$

MSZ076-079-271100-
INTERIOR SOUTHEAST MISSISSIPPI

CITY           SKY/WX    TMP DP  RH WIND       PRES   REMARKS
LEAKESVILLE*     N/A     39  37  93 CALM      30.29R
AGRICOLA*      NOT AVBL

$$

MARINE OBSERVATIONS

STATION/POSITION TIME  TEMP    WIND        PRES    WAVE
                       AIR SEA DIR/SP/G            HT/PER
                 (UTC) (F)     (DEG/KT/KT) (MB)    (FT/S)
PASCAGOULA       1000   50     310/  7/  9 1025.8R
PETIT BOIS ISLND 1000   56     330/ 14/ 17 1026.2R
GRAND BAY        0900   52     300/  5     1026.0R
KATRINA CUT      0900   56     310/ 15     1025.7R
CEDAR POINT      0900   53     310/ 12     1024.7R
E DAUPHIN ISLAND 1000   54     300/ 14/ 16 1025.6R
MIDDLE BAY LIGHT 0900   53     300/ 14     1025.1R
USCG MOBILE BAY  1000   50 59  300/  5/  7 1024.6R
STATE DOCKS      1000   49 58              1025.2R
MEAHER PARK      0900   51     300/  5     1025.7R
WEEKS BAY        0900   53                   N/A
FORT MORGAN      1000   55     320/ 16/ 18 1024.8R
12 S ORANGE BCH  1000   59 65  320/ 17/ 19 1024.2R   5/ 6
PENSACOLA BAY    1000   53 61  310/  3/  5 1025.0R
64 S DAUPHIN ISL 0941   64 70  320/ 23/ 31 1025.8R   7/ 6
67 S FORT MORGAN 0900   66     290/ 35     1024.7

$$

SELECTED LOCATIONS ACROSS THE REGION

CITY           SKY/WX    TMP DP  RH WIND       PRES   REMARKS
NEW ORLEANS    CLEAR     53  46  77 NW8       30.33R
GULFPORT       CLEAR     44  42  93 W3        30.31R
PASCAGOULA AP  CLEAR     47  42  83 W3        30.31R
PASCAGOULA*      N/A     50  43  76 CALM      30.30R
HATTIESBURG    CLEAR     43  35  73 NW3       30.31R
LAUREL         CLEAR     39  32  75 W3        30.30S
MERIDIAN       CLEAR     32  30  92 CALM      30.29R
JACKSON        CLEAR     45  30  55 NW6       30.33R
MONTGOMERY     CLEAR     43  31  62 SW6       30.25R
TROY           CLEAR     38  35  89 NW8       30.24R
KINSTON*       NOT AVBL
GENEVA*          N/A     45  41  87 CALM      30.26R
ASHFORD*         N/A     43  39  87 W3        30.23R
DOTHAN         CLEAR     44  39  82 W5        30.26R
PANAMA CITY    CLEAR     52  43  71 NW9       30.22R

$$



USA.gov is the U.S. government's official web portal to all federal, state and local government web resources and services.